Location: *
(53.4003°S, 165.3236°W)
Time: 01:20:08
(UTC+00:00)

Cosmos 494 Rocket - Pass Details

Date: 11 December 2023
Orbit: 739 x 769 km, 74.1° (Epoch: 24 February)

Event Time Altitude Azimuth Distance (km) Brightness Sun altitude
Rises 13:09:32 0° 210° (SSW) 3,262 7.7 -8.2°
Reaches altitude 10° 13:12:02 10° 216° (SW) 2,324 6.8 -8.0°
Maximum altitude 13:16:58 43° 286° (WNW) 1,076 4.5 -7.6°
Drops below altitude 10° 13:21:50 10° 355° (N) 2,279 5.9 -7.2°
Enters shadow 13:23:28 - 0° (N) 2,891 6.5 -7.1°
